Tracking 19903 objects as of 16-Oct-2019
HD Live streaming from Space Station
objects crossing your sky now

SL-18 DEB


SL-18 DEB is no longer on orbit


NORAD ID: 35358
Int'l Code: 1993-014BH
Perigee: N/A
Apogee: N/A
Inclination: N/A
Period: N/A
Semi major axis: N/A
RCS: N/A
Launch date: March 25, 1993
Source: Commonwealth of Independent States (former USSR) (CIS)
Launch site: PLESETSK MISSILE AND SPACE COMPLEX (PKMTR)
Decay date: 2013-12-19

Note: This is SATELLITE DEBRIS
aabbcc
Your satellite tracking list
Your tracking list is empty




NASA's NSSDC Master Catalog

Two Line Element Set (TLE):
1 35358U 93014BH  13326.21108236  .00824566  00000-0  24120-1 0  9990
2 35358 075.7134 275.4138 0061846 192.5506 156.5530 15.30643058365673
Source of the keplerian elements: AFSPC